User: anonymous   Login
Location: Newark
(36.0914°N, 36.0355°E)
Time: 08:56:03
(UTC+00:00)
Language:

N. Korean satellite - Orbit

View from above orbital plane
View from above orbital plane
View from above satellite
View from above satellite

Ground track
Ground track

The orbit data is extracted from the following two-line orbital elements,

1 39026U 12072A   19237.90717760 +.00000662 +00000-0 +26507-4 0  9999
2 39026 097.2129 238.8548 0036813 216.6527 143.2194 15.27934835371956
Epoch (UTC): 25 August 2019 21:46:20
Eccentricity: 0.0036813
inclination: 97.2129°
perigee height: 457 km
apogee height: 507 km
right ascension of ascending node: 238.8548°
argument of perigee: 216.6527°
revolutions per day: 15.27934835
mean anomaly at epoch: 143.2194°
orbit number at epoch: 37195

The dashed part of the orbit path shows where the satellite is in the earth's shadow,  

DLR